JI1PZF-2 Weather Reports


Display with metric or nautical units.
time (UTC)temp
F
wind
direction
speed
MPH
gust
MPH
rain 1hr
in
rain 24hr
in
rain mn
in
humidity
%
barometer
mb
20260504175328 58 360 4.0 10.0 0.00 0.00 0.00 36 993.7
20260504174347 58 287 4.0 10.0 0.00 0.00 0.00 36 993.2
20260504173347 58 312 6.0 12.0 0.00 0.00 0.00 37 992.9
20260504172323 58 236 5.0 17.0 0.00 0.00 0.00 37 992.6
20260504171327 58 313 3.0 11.0 0.00 0.00 0.00 37 992.4
20260504170313 58 186 6.0 16.0 0.00 0.00 0.00 36 992.2
20260504160325 59 307 5.0 19.0 0.00 0.00 0.00 35 991.0
20260504150328 62 315 3.0 16.0 0.00 0.00 0.00 35 989.3
20260504141314 64 144 1.0 12.0 0.00 0.00 0.00 35 988.2
20260504140317 64 313 4.0 7.0 0.00 0.00 0.00 36 988.0
20260504130327 66 24 2.0 11.0 0.00 0.00 0.00 35 986.6
20260504110329 71 333 2.0 9.0 0.00 0.00 0.00 44 982.6
20260504100317 74 307 4.0 12.0 0.00 0.00 0.00 31 980.7
20260504081315 77 18 2.0 10.0 0.00 0.00 0.00 27 977.3
20260504080317 77 337 2.0 9.0 0.00 0.00 0.00 31 976.9
20260504070324 78 124 5.0 15.0 0.00 0.00 0.00 38 975.4
20260504050332 79 345 4.0 14.0 0.00 0.00 0.00 44 974.9
20260504045349 79 271 2.0 11.0 0.00 0.00 0.00 44 975.1
20260504044330 79 114 3.0 14.0 0.00 0.00 0.00 43 975.0
20260504043327 81 153 4.0 16.0 0.00 0.00 0.00 40 975.0
20260504042313 82 351 4.0 14.0 0.00 0.00 0.00 38 974.8
20260504041333 82 124 4.0 17.0 0.00 0.00 0.00 36 975.0
20260504040313 82 263 2.0 14.0 0.00 0.00 0.00 37 975.1
20260504035328 82 276 4.0 22.0 0.00 0.00 0.00 40 975.1
20260504034328 82 34 4.0 16.0 0.00 0.00 0.00 41 975.2
20260504033330 82 214 4.0 19.0 0.00 0.00 0.00 40 975.2
20260504032331 83 285 4.0 16.0 0.00 0.00 0.00 38 975.1
20260504031333 83 316 5.0 16.0 0.00 0.00 0.00 38 975.2
20260504030331 83 236 5.0 13.0 0.00 0.00 0.00 39 975.2
20260504025328 83 238 4.0 15.0 0.00 0.00 0.00 40 975.2
20260504024329 82 269 7.0 16.0 0.00 0.00 0.00 42 975.3
20260504023331 82 36 3.0 12.0 0.00 0.00 0.00 42 975.5
20260504022352 82 280 4.0 17.0 0.00 0.00 0.00 44 975.6
20260504021331 82 325 6.0 16.0 0.00 0.00 0.00 45 975.8
20260504020334 81 255 3.0 15.0 0.00 0.00 0.00 47 975.8
20260504015330 80 328 4.0 7.0 0.00 0.00 0.00 51 976.1
20260504014326 79 321 5.0 11.0 0.00 0.00 0.00 54 976.5
20260504013329 78 329 0.0 3.0 0.00 0.00 0.00 56 976.4
20260504012332 77 242 0.0 3.0 0.00 0.00 0.00 58 976.5
20260504011333 76 326 1.0 4.0 0.00 0.00 0.00 58 976.8
20260504010312 77 127 4.0 12.0 0.00 0.00 0.00 56 976.6
20260504005327 79 231 2.0 9.0 0.00 0.00 0.00 56 976.8
20260504003314 78 222 1.0 7.0 0.00 0.00 0.00 58 977.1
20260504002315 78 197 2.0 7.0 0.00 0.00 0.00 61 977.0
20260504001315 77 242 3.0 6.0 0.00 0.00 0.00 63 977.0
20260504000316 76 215 2.0 13.0 0.00 0.00 0.00 65 977.1
20260503235327 76 262 2.0 8.0 0.00 0.00 0.00 68 977.2
20260503234329 75 336 4.0 11.0 0.00 0.00 0.00 69 977.0
20260503233330 75 293 2.0 7.0 0.00 0.00 0.00 70 977.3
20260503232349 74 311 2.0 14.0 0.00 0.00 0.00 71 977.0
20260503231330 74 233 2.0 8.0 0.00 0.00 0.00 72 977.2
20260503230333 74 240 2.0 11.0 0.00 0.00 0.00 73 977.4
20260503225324 74 103 5.0 15.0 0.00 0.00 0.00 75 977.4
20260503224347 73 115 1.0 12.0 0.00 0.00 0.00 75 977.3
20260503223326 73 111 3.0 8.0 0.00 0.00 0.00 76 977.3
20260503222330 73 106 2.0 10.0 0.00 0.00 0.00 76 977.3
20260503221335 73 166 2.0 12.0 0.00 0.00 0.00 77 977.3
20260503220316 73 301 1.0 11.0 0.00 0.00 0.00 78 977.0
20260503215330 72 246 6.0 13.0 0.00 0.00 0.00 79 976.7
20260503214334 72 134 4.0 16.0 0.00 0.00 0.00 81 976.7
20260503213355 71 267 1.0 8.0 0.00 0.00 0.00 81 976.6
20260503212318 71 231 2.0 12.0 0.00 0.00 0.00 81 976.5
20260503211318 0 0.0 0.0 0.00 0.00 0.00 976.7
20260503210322 0 0.0 0.0 0.00 0.00 0.00 976.5
20260503204316 0 0.0 0.0 0.00 0.00 0.00 976.2
20260503203322 0 0.0 0.0 0.00 0.00 0.00 976.5
20260503202349 0 0.0 0.0 0.00 0.00 0.00 976.3
20260503201329 0 0.0 0.0 0.00 0.00 0.00 977.0
20260503195318 0 0.0 0.0 0.00 0.00 0.00 977.5
20260503194345 0 0.0 0.0 0.00 0.00 0.00 977.6
20260503193330 0 0.0 0.0 0.00 0.00 0.00 977.9
20260503192341 0 0.0 0.0 0.00 0.00 0.00 978.0
20260503190322 0 0.0 0.0 0.00 0.00 0.00 978.4
20260503185319 0 0.0 0.0 0.00 0.00 0.00 978.7
20260503184322 0 0.0 0.0 0.00 0.00 0.00 979.1
20260503183337 0 0.0 0.0 0.00 0.00 0.00 979.3
20260503181316 0 0.0 0.0 0.00 0.00 0.00 979.8
20260503180321 0 0.0 0.0 0.00 0.00 0.00 980.2